| time (UTC) | temp F | wind direction | speed MPH | gust MPH | rain 1hr in | rain 24hr in | rain mn in | humidity % | barometer mb |
| 20260510211516 | 66 | 270 | 1.0 | 3.0 | 0.00 | 0.00 | 0.00 | 77 | 1013.2 |
| 20260510211016 | 66 | 315 | 2.0 | 3.0 | 0.00 | 0.00 | 0.00 | 78 | 1013.1 |
| 20260510210516 | 66 | 293 | 1.0 | 2.0 | 0.00 | 0.00 | 0.00 | 77 | 1013.2 |
| 20260510210016 | 66 | 270 | 3.0 | 7.0 | 0.00 | 0.00 | 0.00 | 77 | 1013.2 |
| 20260510205516 | 66 | 315 | 2.0 | 4.0 | 0.00 | 0.01 | 0.00 | 78 | 1013.1 |
| 20260510205016 | 66 | 293 | 2.0 | 6.0 | 0.00 | 0.01 | 0.00 | 78 | 1013.0 |
| 20260510204516 | 65 | 270 | 2.0 | 7.0 | 0.00 | 0.01 | 0.00 | 78 | 1012.9 |
| 20260510204016 | 65 | 293 | 2.0 | 4.0 | 0.00 | 0.01 | 0.00 | 79 | 1012.9 |
| 20260510203516 | 65 | 248 | 3.0 | 7.0 | 0.00 | 0.01 | 0.00 | 79 | 1012.9 |
| 20260510203016 | 65 | 248 | 3.0 | 8.0 | 0.00 | 0.01 | 0.00 | 81 | 1012.8 |
| 20260510202517 | 64 | 270 | 2.0 | 4.0 | 0.00 | 0.01 | 0.00 | 83 | 1012.9 |
| 20260510202016 | 64 | 270 | 2.0 | 7.0 | 0.00 | 0.02 | 0.00 | 82 | 1013.0 |
| 20260510201516 | 64 | 293 | 3.0 | 8.0 | 0.00 | 0.02 | 0.00 | 82 | 1012.9 |
| 20260510201016 | 64 | 270 | 2.0 | 8.0 | 0.00 | 0.02 | 0.00 | 84 | 1012.9 |
| 20260510200516 | 63 | 293 | 4.0 | 8.0 | 0.00 | 0.03 | 0.00 | 84 | 1013.0 |
| 20260510200016 | 63 | 270 | 2.0 | 6.0 | 0.00 | 0.03 | 0.00 | 85 | 1012.9 |
| 20260510195516 | 63 | 270 | 1.0 | 3.0 | 0.00 | 0.03 | 0.00 | 84 | 1013.0 |
| 20260510195016 | 63 | 270 | 2.0 | 3.0 | 0.00 | 0.03 | 0.00 | 84 | 1013.0 |
| 20260510194516 | 63 | 270 | 1.0 | 4.0 | 0.00 | 0.04 | 0.00 | 83 | 1013.0 |
| 20260510194016 | 63 | 270 | 2.0 | 4.0 | 0.00 | 0.04 | 0.00 | 84 | 1013.2 |
| 20260510193516 | 63 | 270 | 1.0 | 4.0 | 0.00 | 0.04 | 0.00 | 84 | 1012.9 |
| 20260510193016 | 63 | 293 | 2.0 | 5.0 | 0.00 | 0.04 | 0.00 | 84 | 1012.9 |
| 20260510192516 | 63 | 270 | 1.0 | 4.0 | 0.00 | 0.04 | 0.00 | 84 | 1012.8 |
| 20260510192016 | 63 | 270 | 1.0 | 3.0 | 0.00 | 0.04 | 0.00 | 84 | 1012.9 |
| 20260510191516 | 63 | 270 | 2.0 | 4.0 | 0.00 | 0.05 | 0.00 | 84 | 1013.0 |
| 20260510191016 | 63 | 0.0 | 0.0 | 0.00 | 0.05 | 0.00 | 85 | 1012.8 | |
| 20260510190516 | 63 | 0.0 | 0.0 | 0.00 | 0.05 | 0.00 | 84 | 1012.7 | |
| 20260510190016 | 64 | 0.0 | 2.0 | 0.00 | 0.05 | 0.00 | 86 | 1012.5 | |
| 20260510185516 | 64 | 0.0 | 0.0 | 0.00 | 0.06 | 0.00 | 85 | 1012.7 | |
| 20260510185016 | 65 | 0.0 | 0.0 | 0.00 | 0.06 | 0.00 | 84 | 1012.8 | |
| 20260510184516 | 66 | 0.0 | 3.0 | 0.00 | 0.07 | 0.00 | 81 | 1012.8 | |
| 20260510184016 | 67 | 315 | 1.0 | 3.0 | 0.00 | 0.08 | 0.00 | 79 | 1012.9 |
| 20260510183516 | 68 | 315 | 1.0 | 6.0 | 0.00 | 0.08 | 0.00 | 77 | 1012.9 |
| 20260510183016 | 68 | 0.0 | 3.0 | 0.00 | 0.09 | 0.00 | 78 | 1012.8 | |
| 20260510182516 | 69 | 203 | 1.0 | 3.0 | 0.00 | 0.09 | 0.00 | 75 | 1012.8 |
| 20260510182016 | 70 | 203 | 1.0 | 3.0 | 0.00 | 0.09 | 0.00 | 73 | 1012.7 |
| 20260510181516 | 70 | 0.0 | 1.0 | 0.00 | 0.10 | 0.00 | 70 | 1012.5 | |
| 20260510181016 | 70 | 203 | 1.0 | 3.0 | 0.00 | 0.10 | 0.00 | 68 | 1012.5 |
| 20260510180515 | 70 | 203 | 2.0 | 5.0 | 0.00 | 0.10 | 0.00 | 64 | 1012.4 |
| 20260510180016 | 71 | 203 | 2.0 | 4.0 | 0.00 | 0.10 | 0.00 | 65 | 1012.4 |
| 20260510175515 | 71 | 248 | 3.0 | 5.0 | 0.00 | 0.11 | 0.00 | 66 | 1012.4 |
| 20260510175016 | 71 | 225 | 3.0 | 7.0 | 0.00 | 0.11 | 0.00 | 66 | 1012.5 |
| 20260510174516 | 71 | 225 | 2.0 | 5.0 | 0.00 | 0.11 | 0.00 | 68 | 1012.5 |
| 20260510174015 | 71 | 248 | 2.0 | 5.0 | 0.00 | 0.11 | 0.00 | 68 | 1012.5 |
| 20260510173516 | 71 | 225 | 2.0 | 5.0 | 0.00 | 0.12 | 0.00 | 68 | 1012.5 |
| 20260510173015 | 71 | 270 | 1.0 | 4.0 | 0.00 | 0.12 | 0.00 | 69 | 1012.5 |
| 20260510172516 | 71 | 270 | 2.0 | 5.0 | 0.00 | 0.12 | 0.00 | 66 | 1012.6 |
| 20260510172015 | 70 | 248 | 3.0 | 8.0 | 0.00 | 0.12 | 0.00 | 70 | 1012.5 |
| 20260510171516 | 70 | 225 | 3.0 | 7.0 | 0.00 | 0.13 | 0.00 | 68 | 1012.5 |
| 20260510171015 | 70 | 248 | 3.0 | 8.0 | 0.00 | 0.13 | 0.00 | 69 | 1012.4 |
| 20260510170515 | 70 | 225 | 3.0 | 7.0 | 0.00 | 0.13 | 0.00 | 69 | 1012.6 |
| 20260510170015 | 71 | 180 | 2.0 | 5.0 | 0.00 | 0.13 | 0.00 | 69 | 1012.7 |
| 20260510165515 | 71 | 248 | 2.0 | 6.0 | 0.00 | 0.13 | 0.00 | 67 | 1012.9 |
| 20260510165015 | 71 | 248 | 2.0 | 5.0 | 0.00 | 0.13 | 0.00 | 68 | 1012.8 |
| 20260510164516 | 71 | 203 | 3.0 | 5.0 | 0.00 | 0.13 | 0.00 | 71 | 1012.8 |
| 20260510164015 | 71 | 203 | 2.0 | 5.0 | 0.00 | 0.13 | 0.00 | 71 | 1012.8 |
| 20260510163515 | 71 | 203 | 3.0 | 11.0 | 0.00 | 0.13 | 0.00 | 68 | 1012.8 |
| 20260510163015 | 71 | 203 | 3.0 | 7.0 | 0.00 | 0.13 | 0.00 | 72 | 1012.7 |
| 20260510162515 | 71 | 248 | 3.0 | 9.0 | 0.00 | 0.13 | 0.00 | 71 | 1012.6 |
| 20260510162015 | 70 | 225 | 2.0 | 5.0 | 0.00 | 0.14 | 0.00 | 72 | 1012.6 |
| 20260510161515 | 70 | 203 | 3.0 | 6.0 | 0.00 | 0.14 | 0.00 | 74 | 1012.8 |
| 20260510161015 | 69 | 203 | 3.0 | 6.0 | 0.00 | 0.14 | 0.00 | 76 | 1012.8 |
| 20260510160515 | 69 | 180 | 3.0 | 8.0 | 0.00 | 0.14 | 0.00 | 73 | 1012.8 |
| 20260510160015 | 69 | 180 | 2.0 | 9.0 | 0.00 | 0.14 | 0.00 | 75 | 1012.9 |
| 20260510155515 | 68 | 225 | 3.0 | 6.0 | 0.00 | 0.15 | 0.00 | 76 | 1013.0 |
| 20260510155015 | 68 | 225 | 2.0 | 4.0 | 0.00 | 0.15 | 0.00 | 77 | 1013.0 |
| 20260510154515 | 68 | 225 | 3.0 | 7.0 | 0.00 | 0.15 | 0.00 | 76 | 1013.0 |
| 20260510154015 | 68 | 225 | 3.0 | 6.0 | 0.00 | 0.15 | 0.00 | 76 | 1013.0 |
| 20260510153515 | 68 | 180 | 4.0 | 11.0 | 0.00 | 0.15 | 0.00 | 73 | 1013.0 |
| 20260510153015 | 68 | 203 | 2.0 | 7.0 | 0.00 | 0.16 | 0.00 | 76 | 1013.0 |
| 20260510152515 | 67 | 225 | 3.0 | 8.0 | 0.00 | 0.16 | 0.00 | 77 | 1013.1 |
| 20260510152015 | 67 | 225 | 2.0 | 6.0 | 0.00 | 0.16 | 0.00 | 76 | 1013.0 |
| 20260510151515 | 67 | 225 | 4.0 | 12.0 | 0.00 | 0.16 | 0.00 | 75 | 1013.0 |
| 20260510151015 | 67 | 225 | 2.0 | 5.0 | 0.00 | 0.16 | 0.00 | 77 | 1013.0 |
| 20260510150515 | 67 | 203 | 2.0 | 6.0 | 0.00 | 0.16 | 0.00 | 76 | 1013.1 |
| 20260510150020 | 67 | 248 | 4.0 | 9.0 | 0.00 | 0.16 | 0.00 | 77 | 1013.1 |
| 20260510145515 | 67 | 225 | 4.0 | 10.0 | 0.00 | 0.16 | 0.00 | 77 | 1013.1 |
| 20260510145015 | 67 | 180 | 5.0 | 12.0 | 0.00 | 0.16 | 0.00 | 78 | 1013.0 |
| 20260510144515 | 67 | 135 | 3.0 | 7.0 | 0.00 | 0.16 | 0.00 | 78 | 1013.0 |
| 20260510144015 | 66 | 225 | 4.0 | 9.0 | 0.00 | 0.16 | 0.00 | 79 | 1013.0 |
| 20260510143515 | 66 | 225 | 2.0 | 8.0 | 0.00 | 0.16 | 0.00 | 84 | 1013.0 |
| 20260510143015 | 65 | 225 | 5.0 | 8.0 | 0.00 | 0.16 | 0.00 | 82 | 1013.0 |
| 20260510142515 | 64 | 203 | 4.0 | 10.0 | 0.00 | 0.16 | 0.00 | 83 | 1012.9 |
| 20260510142015 | 64 | 203 | 3.0 | 8.0 | 0.00 | 0.16 | 0.00 | 84 | 1012.8 |
| 20260510141515 | 63 | 158 | 3.0 | 11.0 | 0.00 | 0.16 | 0.00 | 85 | 1012.9 |
| 20260510141015 | 62 | 158 | 3.0 | 8.0 | 0.00 | 0.16 | 0.00 | 86 | 1012.9 |
| 20260510140515 | 62 | 180 | 2.0 | 6.0 | 0.00 | 0.16 | 0.00 | 87 | 1012.9 |
| 20260510140015 | 61 | 158 | 3.0 | 8.0 | 0.00 | 0.16 | 0.00 | 88 | 1012.8 |
| 20260510135515 | 61 | 158 | 3.0 | 7.0 | 0.00 | 0.16 | 0.00 | 90 | 1012.9 |
| 20260510135015 | 60 | 180 | 2.0 | 7.0 | 0.00 | 0.16 | 0.00 | 94 | 1012.9 |
| 20260510134515 | 59 | 203 | 3.0 | 7.0 | 0.00 | 0.16 | 0.00 | 95 | 1013.0 |
| 20260510134015 | 58 | 180 | 2.0 | 5.0 | 0.00 | 0.16 | 0.00 | 96 | 1012.9 |
| 20260510133515 | 58 | 203 | 2.0 | 5.0 | 0.00 | 0.16 | 0.00 | 97 | 1013.0 |
| 20260510133015 | 57 | 203 | 2.0 | 4.0 | 0.00 | 0.16 | 0.00 | 98 | 1013.2 |
| 20260510132515 | 57 | 203 | 1.0 | 6.0 | 0.00 | 0.16 | 0.00 | 99 | 1013.3 |
| 20260510132015 | 57 | 248 | 3.0 | 6.0 | 0.00 | 0.16 | 0.00 | 99 | 1013.3 |
| 20260510131515 | 57 | 248 | 1.0 | 4.0 | 0.00 | 0.16 | 0.00 | 99 | 1013.3 |
| 20260510131015 | 57 | 248 | 2.0 | 4.0 | 0.00 | 0.16 | 0.00 | 99 | 1013.3 |
| 20260510130515 | 57 | 203 | 1.0 | 4.0 | 0.00 | 0.17 | 0.00 | 100 | 1013.2 |
| 20260510130015 | 56 | 0.0 | 4.0 | 0.00 | 0.17 | 0.00 | 100 | 1013.0 | |
| 20260510125515 | 56 | 203 | 1.0 | 4.0 | 0.00 | 0.17 | 0.00 | 100 | 1013.0 |
| 20260510125015 | 55 | 0.0 | 2.0 | 0.00 | 0.17 | 0.00 | 100 | 1013.0 | |
| 20260510124515 | 54 | 0.0 | 2.0 | 0.00 | 0.17 | 0.00 | 99 | 1013.0 | |
| 20260510124015 | 54 | 0.0 | 1.0 | 0.00 | 0.17 | 0.00 | 99 | 1013.0 | |
| 20260510123515 | 53 | 0.0 | 0.0 | 0.00 | 0.17 | 0.00 | 99 | 1013.1 | |
| 20260510123015 | 52 | 0.0 | 1.0 | 0.00 | 0.17 | 0.00 | 99 | 1013.0 | |
| 20260510122515 | 52 | 0.0 | 1.0 | 0.00 | 0.17 | 0.00 | 99 | 1012.8 | |
| 20260510122015 | 51 | 0.0 | 0.0 | 0.00 | 0.17 | 0.00 | 99 | 1012.8 | |
| 20260510121515 | 51 | 0.0 | 0.0 | 0.00 | 0.17 | 0.00 | 99 | 1012.6 | |
| 20260510121015 | 50 | 0.0 | 0.0 | 0.00 | 0.17 | 0.00 | 99 | 1012.6 | |
| 20260510120515 | 50 | 0.0 | 0.0 | 0.00 | 0.17 | 0.00 | 99 | 1012.6 | |
| 20260510120015 | 50 | 0.0 | 0.0 | 0.00 | 0.17 | 0.00 | 98 | 1012.6 | |
| 20260510115515 | 50 | 0.0 | 0.0 | 0.00 | 0.17 | 0.00 | 98 | 1012.5 | |
| 20260510115015 | 50 | 0.0 | 0.0 | 0.00 | 0.17 | 0.00 | 98 | 1012.4 | |
| 20260510114515 | 50 | 0.0 | 0.0 | 0.00 | 0.17 | 0.00 | 99 | 1012.4 | |
| 20260510114016 | 50 | 0.0 | 0.0 | 0.00 | 0.17 | 0.00 | 99 | 1012.4 | |
| 20260510113516 | 50 | 0.0 | 0.0 | 0.00 | 0.17 | 0.00 | 99 | 1012.5 | |
| 20260510113015 | 50 | 0.0 | 0.0 | 0.00 | 0.17 | 0.00 | 99 | 1012.4 | |
| 20260510112515 | 49 | 0.0 | 0.0 | 0.00 | 0.17 | 0.00 | 98 | 1012.3 | |
| 20260510112017 | 49 | 0.0 | 0.0 | 0.00 | 0.17 | 0.00 | 98 | 1012.3 | |
| 20260510111517 | 49 | 0.0 | 0.0 | 0.00 | 0.17 | 0.00 | 98 | 1012.3 | |
| 20260510111018 | 49 | 0.0 | 0.0 | 0.00 | 0.17 | 0.00 | 98 | 1012.1 | |
| 20260510110517 | 49 | 0.0 | 0.0 | 0.00 | 0.17 | 0.00 | 99 | 1012.1 | |
| 20260510110017 | 49 | 0.0 | 0.0 | 0.00 | 0.17 | 0.00 | 98 | 1012.0 | |
| 20260510105517 | 49 | 0.0 | 0.0 | 0.00 | 0.17 | 0.00 | 98 | 1011.9 | |
| 20260510105017 | 49 | 0.0 | 0.0 | 0.00 | 0.17 | 0.00 | 98 | 1011.8 | |
| 20260510104517 | 48 | 0.0 | 0.0 | 0.00 | 0.17 | 0.00 | 98 | 1011.9 | |
| 20260510104017 | 48 | 0.0 | 0.0 | 0.00 | 0.17 | 0.00 | 98 | 1011.9 | |
| 20260510103517 | 48 | 0.0 | 0.0 | 0.00 | 0.17 | 0.00 | 98 | 1011.9 | |
| 20260510103017 | 48 | 0.0 | 0.0 | 0.00 | 0.17 | 0.00 | 98 | 1011.7 | |
| 20260510102517 | 48 | 0.0 | 0.0 | 0.00 | 0.17 | 0.00 | 98 | 1011.7 | |
| 20260510102017 | 48 | 0.0 | 0.0 | 0.00 | 0.17 | 0.00 | 98 | 1011.7 | |
| 20260510101517 | 48 | 0.0 | 0.0 | 0.00 | 0.17 | 0.00 | 98 | 1011.8 | |
| 20260510101017 | 48 | 0.0 | 0.0 | 0.00 | 0.17 | 0.00 | 98 | 1011.7 | |
| 20260510100516 | 48 | 0.0 | 0.0 | 0.00 | 0.17 | 0.00 | 98 | 1011.6 | |
| 20260510100017 | 48 | 0.0 | 0.0 | 0.00 | 0.17 | 0.00 | 98 | 1011.5 | |
| 20260510095517 | 48 | 0.0 | 0.0 | 0.00 | 0.17 | 0.00 | 98 | 1011.4 | |
| 20260510095017 | 48 | 0.0 | 0.0 | 0.00 | 0.17 | 0.00 | 98 | 1011.4 | |
| 20260510094517 | 48 | 0.0 | 0.0 | 0.00 | 0.17 | 0.00 | 98 | 1011.5 | |
| 20260510094017 | 48 | 0.0 | 0.0 | 0.00 | 0.17 | 0.00 | 98 | 1011.4 | |
| 20260510093517 | 48 | 0.0 | 1.0 | 0.00 | 0.17 | 0.00 | 98 | 1011.4 | |
| 20260510093017 | 47 | 0.0 | 2.0 | 0.00 | 0.17 | 0.00 | 98 | 1011.3 | |
| 20260510092517 | 47 | 0.0 | 0.0 | 0.00 | 0.17 | 0.00 | 98 | 1011.1 | |
| 20260510092017 | 47 | 0.0 | 0.0 | 0.00 | 0.17 | 0.00 | 98 | 1010.9 | |
| 20260510091517 | 47 | 0.0 | 0.0 | 0.00 | 0.17 | 0.00 | 98 | 1011.0 | |
| 20260510091016 | 47 | 0.0 | 0.0 | 0.00 | 0.17 | 0.00 | 98 | 1011.3 | |
| 20260510090516 | 47 | 0.0 | 0.0 | 0.00 | 0.17 | 0.00 | 98 | 1011.1 | |
| 20260510090016 | 47 | 0.0 | 0.0 | 0.00 | 0.17 | 0.00 | 98 | 1010.9 | |
| 20260510085516 | 47 | 0.0 | 0.0 | 0.00 | 0.17 | 0.00 | 98 | 1010.8 | |
| 20260510085016 | 47 | 0.0 | 0.0 | 0.00 | 0.17 | 0.00 | 98 | 1011.0 | |
| 20260510084516 | 47 | 0.0 | 0.0 | 0.00 | 0.17 | 0.00 | 98 | 1011.1 | |
| 20260510084016 | 47 | 0.0 | 0.0 | 0.00 | 0.17 | 0.00 | 98 | 1011.2 | |
| 20260510083516 | 48 | 0.0 | 1.0 | 0.00 | 0.17 | 0.00 | 98 | 1011.3 | |
| 20260510083016 | 48 | 0.0 | 0.0 | 0.00 | 0.17 | 0.00 | 98 | 1011.4 | |
| 20260510082516 | 48 | 0.0 | 1.0 | 0.00 | 0.17 | 0.00 | 98 | 1011.4 | |
| 20260510082016 | 48 | 0.0 | 2.0 | 0.00 | 0.17 | 0.00 | 98 | 1011.3 | |
| 20260510081516 | 48 | 0.0 | 0.0 | 0.00 | 0.17 | 0.00 | 98 | 1011.3 | |
| 20260510081016 | 48 | 0.0 | 0.0 | 0.00 | 0.18 | 0.00 | 98 | 1011.5 | |
| 20260510080516 | 48 | 0.0 | 0.0 | 0.00 | 0.18 | 0.00 | 98 | 1011.6 | |
| 20260510080016 | 48 | 0.0 | 1.0 | 0.00 | 0.18 | 0.00 | 98 | 1011.6 | |
| 20260510075516 | 48 | 0.0 | 0.0 | 0.00 | 0.18 | 0.00 | 98 | 1011.8 | |
| 20260510075016 | 48 | 0.0 | 1.0 | 0.00 | 0.18 | 0.00 | 98 | 1011.8 | |
| 20260510074516 | 48 | 0.0 | 3.0 | 0.00 | 0.18 | 0.00 | 98 | 1011.7 | |
| 20260510074016 | 48 | 0.0 | 0.0 | 0.00 | 0.18 | 0.00 | 98 | 1011.8 | |
| 20260510073516 | 48 | 0.0 | 0.0 | 0.00 | 0.18 | 0.00 | 98 | 1011.8 | |
| 20260510073016 | 48 | 0.0 | 0.0 | 0.00 | 0.18 | 0.00 | 98 | 1011.8 | |
| 20260510072516 | 48 | 0.0 | 0.0 | 0.00 | 0.18 | 0.00 | 98 | 1012.0 | |
| 20260510072016 | 48 | 0.0 | 1.0 | 0.00 | 0.19 | 0.00 | 98 | 1012.0 | |
| 20260510071516 | 47 | 0.0 | 1.0 | 0.00 | 0.19 | 0.00 | 98 | 1012.0 | |
| 20260510071016 | 47 | 0.0 | 0.0 | 0.00 | 0.19 | 0.00 | 98 | 1012.0 | |
| 20260510070516 | 47 | 0.0 | 0.0 | 0.00 | 0.20 | 0.00 | 98 | 1012.2 | |
| 20260510070016 | 47 | 0.0 | 0.0 | 0.00 | 0.20 | 0.00 | 98 | 1012.1 | |
| 20260510065516 | 47 | 0.0 | 0.0 | 0.00 | 0.20 | 0.00 | 98 | 1012.1 | |
| 20260510065016 | 46 | 0.0 | 1.0 | 0.00 | 0.20 | 0.00 | 98 | 1012.1 | |
| 20260510064516 | 46 | 0.0 | 1.0 | 0.00 | 0.20 | 0.00 | 98 | 1012.0 | |
| 20260510064016 | 46 | 0.0 | 0.0 | 0.00 | 0.20 | 0.00 | 98 | 1011.6 | |
| 20260510063516 | 46 | 0.0 | 0.0 | 0.00 | 0.20 | 0.00 | 98 | 1011.5 | |
| 20260510063016 | 46 | 0.0 | 0.0 | 0.00 | 0.21 | 0.00 | 98 | 1011.6 | |
| 20260510062516 | 45 | 0.0 | 0.0 | 0.00 | 0.21 | 0.00 | 98 | 1011.4 | |
| 20260510062016 | 45 | 0.0 | 2.0 | 0.00 | 0.21 | 0.00 | 98 | 1011.5 | |
| 20260510061516 | 45 | 0.0 | 1.0 | 0.00 | 0.21 | 0.00 | 98 | 1011.6 | |
| 20260510061016 | 45 | 0.0 | 0.0 | 0.00 | 0.21 | 0.00 | 98 | 1011.7 | |
| 20260510060516 | 44 | 0.0 | 0.0 | 0.00 | 0.21 | 0.00 | 98 | 1011.6 | |
| 20260510060016 | 44 | 0.0 | 0.0 | 0.00 | 0.21 | 0.00 | 98 | 1011.6 | |
| 20260510055516 | 44 | 0.0 | 0.0 | 0.00 | 0.21 | 0.00 | 97 | 1011.8 | |
| 20260510055016 | 43 | 0.0 | 0.0 | 0.00 | 0.21 | 0.00 | 97 | 1011.7 | |
| 20260510054516 | 43 | 0.0 | 0.0 | 0.00 | 0.21 | 0.00 | 97 | 1011.8 | |
| 20260510054016 | 43 | 0.0 | 0.0 | 0.00 | 0.21 | 0.00 | 97 | 1011.7 | |
| 20260510053516 | 43 | 0.0 | 0.0 | 0.00 | 0.21 | 0.00 | 97 | 1011.6 | |
| 20260510053016 | 43 | 0.0 | 0.0 | 0.00 | 0.21 | 0.00 | 97 | 1011.5 | |
| 20260510052516 | 43 | 0.0 | 0.0 | 0.00 | 0.21 | 0.00 | 97 | 1011.3 | |
| 20260510052016 | 43 | 0.0 | 0.0 | 0.00 | 0.21 | 0.00 | 97 | 1011.1 | |
| 20260510051516 | 43 | 0.0 | 0.0 | 0.00 | 0.21 | 0.00 | 97 | 1011.0 | |
| 20260510051016 | 43 | 0.0 | 0.0 | 0.00 | 0.21 | 0.00 | 97 | 1011.0 | |
| 20260510050516 | 43 | 0.0 | 0.0 | 0.00 | 0.21 | 0.00 | 97 | 1011.2 | |
| 20260510050016 | 43 | 0.0 | 0.0 | 0.00 | 0.21 | 0.00 | 97 | 1011.1 | |
| 20260510045516 | 43 | 0.0 | 0.0 | 0.00 | 0.21 | 0.00 | 97 | 1011.3 | |
| 20260510045016 | 43 | 0.0 | 0.0 | 0.00 | 0.21 | 0.00 | 96 | 1011.4 | |
| 20260510044516 | 43 | 0.0 | 0.0 | 0.00 | 0.21 | 0.00 | 96 | 1011.4 | |
| 20260510044016 | 43 | 0.0 | 0.0 | 0.00 | 0.21 | 0.00 | 96 | 1011.3 | |
| 20260510043516 | 43 | 0.0 | 0.0 | 0.00 | 0.21 | 0.00 | 96 | 1011.2 | |
| 20260510043016 | 44 | 0.0 | 0.0 | 0.00 | 0.21 | 0.00 | 96 | 1011.2 | |
| 20260510042516 | 44 | 0.0 | 0.0 | 0.00 | 0.21 | 0.00 | 96 | 1011.0 | |
| 20260510042016 | 44 | 0.0 | 0.0 | 0.00 | 0.21 | 0.00 | 96 | 1011.2 | |
| 20260510041516 | 44 | 0.0 | 0.0 | 0.00 | 0.21 | 0.00 | 96 | 1011.0 | |
| 20260510041016 | 44 | 0.0 | 0.0 | 0.00 | 0.21 | 0.00 | 96 | 1011.1 | |
| 20260510040516 | 44 | 0.0 | 0.0 | 0.00 | 0.21 | 0.00 | 96 | 1011.1 | |
| 20260510040016 | 44 | 0.0 | 0.0 | 0.00 | 0.21 | 0.21 | 96 | 1011.1 | |
| 20260510035515 | 44 | 0.0 | 0.0 | 0.00 | 0.21 | 0.21 | 96 | 1010.9 | |
| 20260510035015 | 44 | 0.0 | 0.0 | 0.00 | 0.21 | 0.21 | 96 | 1010.9 | |
| 20260510034515 | 44 | 0.0 | 0.0 | 0.00 | 0.21 | 0.21 | 96 | 1011.0 | |
| 20260510034015 | 45 | 0.0 | 0.0 | 0.00 | 0.21 | 0.21 | 96 | 1011.0 | |
| 20260510033516 | 45 | 0.0 | 0.0 | 0.00 | 0.21 | 0.21 | 96 | 1010.9 | |
| 20260510033015 | 45 | 0.0 | 2.0 | 0.00 | 0.21 | 0.21 | 96 | 1011.0 | |
| 20260510032515 | 45 | 0.0 | 0.0 | 0.00 | 0.21 | 0.21 | 96 | 1010.9 | |
| 20260510032017 | 45 | 0.0 | 0.0 | 0.00 | 0.21 | 0.21 | 96 | 1010.9 | |
| 20260510031517 | 45 | 0.0 | 0.0 | 0.00 | 0.21 | 0.21 | 96 | 1011.0 | |
| 20260510031017 | 45 | 0.0 | 0.0 | 0.00 | 0.21 | 0.21 | 96 | 1011.0 | |
| 20260510030517 | 46 | 0.0 | 0.0 | 0.00 | 0.21 | 0.21 | 96 | 1011.1 | |
| 20260510030017 | 46 | 0.0 | 0.0 | 0.00 | 0.21 | 0.21 | 96 | 1011.1 | |
| 20260510025517 | 46 | 0.0 | 0.0 | 0.00 | 0.21 | 0.21 | 96 | 1011.1 | |
| 20260510025017 | 46 | 0.0 | 0.0 | 0.00 | 0.21 | 0.21 | 96 | 1011.1 | |
| 20260510024517 | 46 | 0.0 | 0.0 | 0.00 | 0.21 | 0.21 | 96 | 1011.1 | |
| 20260510024017 | 47 | 0.0 | 0.0 | 0.00 | 0.21 | 0.21 | 96 | 1011.2 | |
| 20260510023517 | 47 | 0.0 | 0.0 | 0.00 | 0.21 | 0.21 | 96 | 1011.2 | |
| 20260510023017 | 47 | 0.0 | 0.0 | 0.00 | 0.21 | 0.21 | 96 | 1011.1 | |
| 20260510022517 | 47 | 0.0 | 0.0 | 0.00 | 0.21 | 0.21 | 96 | 1011.2 | |
| 20260510022017 | 47 | 0.0 | 0.0 | 0.00 | 0.21 | 0.21 | 96 | 1011.0 | |
| 20260510021517 | 47 | 0.0 | 0.0 | 0.00 | 0.21 | 0.21 | 96 | 1010.9 | |
| 20260510021017 | 47 | 0.0 | 0.0 | 0.00 | 0.21 | 0.21 | 96 | 1010.9 | |
| 20260510020517 | 48 | 0.0 | 0.0 | 0.00 | 0.21 | 0.21 | 96 | 1011.0 | |
| 20260510020017 | 48 | 0.0 | 0.0 | 0.00 | 0.21 | 0.21 | 96 | 1010.9 | |
| 20260510015517 | 48 | 0.0 | 0.0 | 0.00 | 0.21 | 0.21 | 96 | 1010.8 | |
| 20260510015017 | 48 | 0.0 | 0.0 | 0.00 | 0.21 | 0.21 | 96 | 1010.8 | |
| 20260510014517 | 49 | 0.0 | 0.0 | 0.00 | 0.21 | 0.21 | 96 | 1010.8 | |
| 20260510014017 | 49 | 0.0 | 0.0 | 0.00 | 0.21 | 0.21 | 96 | 1010.8 | |
| 20260510013516 | 49 | 0.0 | 0.0 | 0.00 | 0.21 | 0.21 | 96 | 1010.9 | |
| 20260510013017 | 49 | 0.0 | 0.0 | 0.00 | 0.21 | 0.21 | 96 | 1010.8 | |
| 20260510012517 | 49 | 0.0 | 0.0 | 0.00 | 0.21 | 0.21 | 96 | 1010.8 | |
| 20260510012022 | 50 | 0.0 | 0.0 | 0.00 | 0.21 | 0.21 | 96 | 1010.7 | |
| 20260510011516 | 50 | 0.0 | 0.0 | 0.00 | 0.21 | 0.21 | 96 | 1010.6 | |
| 20260510011016 | 50 | 0.0 | 0.0 | 0.00 | 0.21 | 0.21 | 96 | 1010.6 | |
| 20260510010517 | 50 | 0.0 | 0.0 | 0.00 | 0.21 | 0.21 | 96 | 1010.6 | |
| 20260510010016 | 50 | 0.0 | 0.0 | 0.00 | 0.21 | 0.21 | 96 | 1010.4 | |
| 20260510005517 | 51 | 0.0 | 0.0 | 0.00 | 0.21 | 0.21 | 96 | 1010.4 | |
| 20260510005016 | 51 | 0.0 | 0.0 | 0.00 | 0.21 | 0.21 | 95 | 1010.4 | |
| 20260510004516 | 51 | 0.0 | 0.0 | 0.00 | 0.21 | 0.21 | 96 | 1010.4 | |
| 20260510004017 | 51 | 0.0 | 0.0 | 0.00 | 0.21 | 0.21 | 95 | 1010.2 | |
| 20260510003516 | 51 | 0.0 | 0.0 | 0.00 | 0.21 | 0.21 | 95 | 1010.2 | |
| 20260510003016 | 52 | 0.0 | 0.0 | 0.00 | 0.21 | 0.21 | 96 | 1010.2 | |
| 20260510002516 | 52 | 0.0 | 2.0 | 0.00 | 0.21 | 0.21 | 95 | 1009.9 | |
| 20260510002016 | 52 | 0.0 | 2.0 | 0.00 | 0.21 | 0.21 | 95 | 1009.9 | |
| 20260510001517 | 52 | 0.0 | 3.0 | 0.00 | 0.21 | 0.21 | 96 | 1010.0 | |
| 20260510001016 | 52 | 0.0 | 2.0 | 0.00 | 0.21 | 0.21 | 95 | 1009.9 | |
| 20260510000517 | 53 | 0.0 | 2.0 | 0.00 | 0.21 | 0.21 | 95 | 1009.8 | |
| 20260510000016 | 53 | 0.0 | 0.0 | 0.00 | 0.21 | 0.21 | 95 | 1009.7 | |
| 20260509235516 | 53 | 0.0 | 0.0 | 0.00 | 0.21 | 0.21 | 95 | 1009.8 | |
| 20260509235016 | 53 | 0.0 | 2.0 | 0.00 | 0.21 | 0.21 | 95 | 1009.7 | |
| 20260509234516 | 53 | 0.0 | 0.0 | 0.00 | 0.21 | 0.21 | 95 | 1009.6 | |
| 20260509234016 | 54 | 0.0 | 0.0 | 0.00 | 0.21 | 0.21 | 95 | 1009.6 | |
| 20260509233516 | 54 | 0.0 | 0.0 | 0.00 | 0.21 | 0.21 | 95 | 1009.5 | |
| 20260509233016 | 54 | 0.0 | 0.0 | 0.00 | 0.21 | 0.21 | 96 | 1009.6 | |
| 20260509232516 | 54 | 0.0 | 3.0 | 0.00 | 0.21 | 0.21 | 96 | 1009.6 | |
| 20260509232016 | 54 | 0.0 | 3.0 | 0.00 | 0.21 | 0.21 | 95 | 1009.5 | |
| 20260509231516 | 54 | 0.0 | 2.0 | 0.00 | 0.21 | 0.21 | 96 | 1009.4 | |
| 20260509231016 | 55 | 0.0 | 2.0 | 0.00 | 0.21 | 0.21 | 96 | 1009.6 | |
| 20260509230517 | 55 | 158 | 1.0 | 4.0 | 0.00 | 0.21 | 0.21 | 96 | 1009.7 |
| 20260509230016 | 55 | 0.0 | 2.0 | 0.00 | 0.21 | 0.21 | 96 | 1009.7 | |
| 20260509225516 | 55 | 158 | 1.0 | 4.0 | 0.00 | 0.21 | 0.21 | 96 | 1009.7 |
| 20260509225016 | 55 | 0.0 | 2.0 | 0.00 | 0.21 | 0.21 | 96 | 1009.7 | |
| 20260509224516 | 55 | 180 | 1.0 | 5.0 | 0.00 | 0.21 | 0.21 | 96 | 1009.7 |
| 20260509224016 | 55 | 0.0 | 1.0 | 0.00 | 0.21 | 0.21 | 97 | 1009.7 | |
| 20260509223516 | 54 | 0.0 | 2.0 | 0.00 | 0.21 | 0.21 | 96 | 1009.7 | |
| 20260509223016 | 54 | 0.0 | 1.0 | 0.00 | 0.21 | 0.21 | 96 | 1009.7 | |
| 20260509222516 | 54 | 0.0 | 3.0 | 0.00 | 0.21 | 0.21 | 96 | 1009.7 | |
| 20260509222016 | 54 | 0.0 | 5.0 | 0.00 | 0.21 | 0.21 | 96 | 1009.7 | |
| 20260509221516 | 54 | 0.0 | 0.0 | 0.00 | 0.21 | 0.21 | 96 | 1009.6 | |
| 20260509221016 | 54 | 0.0 | 0.0 | 0.00 | 0.21 | 0.21 | 96 | 1009.5 | |
| 20260509220516 | 54 | 0.0 | 2.0 | 0.00 | 0.21 | 0.21 | 96 | 1009.5 | |
| 20260509220016 | 55 | 0.0 | 2.0 | 0.00 | 0.21 | 0.21 | 96 | 1009.7 | |
| 20260509215516 | 55 | 0.0 | 2.0 | 0.01 | 0.21 | 0.21 | 96 | 1009.7 | |
| 20260509215016 | 55 | 0.0 | 2.0 | 0.01 | 0.21 | 0.21 | 96 | 1009.9 | |
| 20260509214516 | 55 | 0.0 | 2.0 | 0.01 | 0.21 | 0.21 | 96 | 1009.9 | |
| 20260509214016 | 55 | 0.0 | 2.0 | 0.01 | 0.21 | 0.21 | 96 | 1010.0 | |
| 20260509213516 | 55 | 0.0 | 3.0 | 0.01 | 0.21 | 0.21 | 96 | 1010.1 | |
| 20260509213016 | 55 | 180 | 1.0 | 4.0 | 0.01 | 0.21 | 0.21 | 96 | 1010.1 |
| 20260509212516 | 55 | 0.0 | 1.0 | 0.01 | 0.21 | 0.21 | 96 | 1009.8 | |
| 20260509212016 | 55 | 0.0 | 1.0 | 0.02 | 0.21 | 0.21 | 96 | 1010.0 |